Weather reports worldwide

Advertisment
Tholey, Germany (10706): temperature & dewpoint: 20.03.2019 08:00:00 - 26.03.2019 08:00:00 (CET)Tholey, Germany (10706): temperature 5cm & temperature -5cm: 20.03.2019 08:00:00 - 26.03.2019 08:00:00 (CET)Tholey, Germany (10706): temperature -20cm & temperature -100cm: 20.03.2019 08:00:00 - 26.03.2019 08:00:00 (CET)Tholey, Germany (10706): wind speed & gusts: 20.03.2019 08:00:00 - 26.03.2019 08:00:00 (CET)Tholey, Germany (10706): wind direction: 20.03.2019 08:00:00 - 26.03.2019 08:00:00 (CET)Tholey, Germany (10706): reduced air pressure: 20.03.2019 08:00:00 - 26.03.2019 08:00:00 (CET)Tholey, Germany (10706): visibility: 20.03.2019 08:00:00 - 26.03.2019 08:00:00 (CET)Tholey, Germany (10706): sunshine duration: 20.03.2019 08:00:00 - 26.03.2019 08:00:00 (CET)Tholey, Germany (10706): precipitation: 20.03.2019 08:00:00 - 26.03.2019 08:00:00 (CET)
Date & Time tt [°C] td [°C] tt 5cm [°C] tt -5cm [°C] tt -20cm [°C] tt -100cm [°C] ff [km/h] ff [kn] fx [km/h] fx [kn] dd ppp [hPa] vv [km] sd [min] rr [mm]
26.03.2019 08:00:00 4,4 -1,3 5,7 3,9 5,8 7,1 9 5 22 12 N 1031,5 25 15 0,0
26.03.2019 07:00:00 3,8 -0,7 3,0 3,1 6,0 7,1 8 4 23 12 NNW 1031,2 18 5 0,0
26.03.2019 06:00:00 3,6 0,2 1,7 2,7 6,1 7,1 11 6 19 10 NNW 1031,0 14 0 0,0
26.03.2019 05:00:00 3,3 -0,2 0,5 3,0 6,3 7,1 6 3 16 9 NW 1030,8 26 0 0,0
26.03.2019 04:00:00 3,8 -0,1 2,0 3,7 6,4 7,1 8 4 19 10 N 1030,3 38 0 0,0
26.03.2019 03:00:00 3,9 -0,7 2,2 3,8 6,5 7,1 10 6 28 15 N 1030,1 70 0 0,0
26.03.2019 02:00:00 4,1 -0,3 2,4 4,2 6,6 7,0 12 7 29 16 NNE 1029,7 62 0 0,0
26.03.2019 01:00:00 4,3 0,3 3,2 4,4 6,8 7,0 11 6 30 16 NE 1029,5 42 0 0,0
26.03.2019 00:00:00 4,6 0,3 3,1 4,5 7,0 7,0 16 9 27 14 NE 1028,9 22 0 0,0
25.03.2019 23:00:00 4,8 0,4 3,3 4,5 7,1 7,0 17 9 31 17 N 1028,2 26 0 0,0
25.03.2019 22:00:00 4,6 0,6 2,9 4,6 7,3 7,0 12 6 35 19 N 1027,7 43 0 0,0
25.03.2019 21:00:00 5,0 0,7 3,0 5,2 7,5 7,0 14 8 37 20 NNW 1026,6 52 0 0,0
25.03.2019 20:00:00 4,3 1,5 3,2 5,8 7,6 7,0 8 4 41 22 WNW 1026,1 45 0 0,9
25.03.2019 19:00:00 5,2 0,7 4,0 6,8 7,7 7,0 25 13 50 27 WNW 1025,1 24 21 0,0
25.03.2019 18:00:00 5,7 1,0 5,1 8,0 7,6 7,0 14 7 50 27 W 1024,6 57 37 0,2
25.03.2019 17:00:00 7,1 0,6 8,6 9,5 7,4 7,0 29 15 45 24 W 1024,1 39 28 0,5
25.03.2019 16:00:00 8,3 -2,1 9,5 11,5 7,1 7,0 31 17 56 31 WNW 1023,4 38 47 0,0
25.03.2019 15:00:00 8,2 -2,5 10,7 11,4 6,8 7,0 25 14 53 29 W 1023,5 33 44 0,0
25.03.2019 14:00:00 8,1 -3,4 10,9 10,9 6,5 7,0 28 15 52 28 WNW 1023,1 26 48 0,0
25.03.2019 13:00:00 5,4 -0,9 4,4 9,1 6,2 7,0 32 18 58 31 NW 1024,4 18 25 0,0
25.03.2019 12:00:00 8,1 -2,6 12,9 8,6 6,0 7,0 15 8 48 26 NW 1023,6 57 33 0,0
25.03.2019 11:00:00 6,4 -2,2 7,2 6,9 5,9 6,9 24 13 42 23 WNW 1024,0 59 27 0,0
25.03.2019 10:00:00 4,5 -0,2 4,6 4,7 5,9 6,9 19 10 30 16 WNW 1024,3 30 12 0,0
25.03.2019 09:00:00 3,2 -0,5 6,3 3,7 6,0 6,9 14 7 18 10 SW 1023,9 26 25 0,0
25.03.2019 08:00:00 1,0 -1,9 1,2 2,3 6,2 6,9 10 6 15 8 W 1024,2 25 0 0,0
25.03.2019 07:00:00 0,2 -2,0 -0,4 1,8 6,4 6,9 10 5 16 8 W 1024,2 19 0 0,0
25.03.2019 06:00:00 0,6 -2,0 -1,1 1,7 6,7 6,9 11 6 14 7 W 1024,2 23 0 0,0
25.03.2019 05:00:00 1,3 -2,0 -0,9 2,1 6,9 6,9 12 6 14 8 W 1024,3 31 0 0,0
25.03.2019 04:00:00 1,6 -2,0 -0,7 2,3 7,2 6,9 11 6 16 9 W 1024,6 27 0 0,0
25.03.2019 03:00:00 3,1 -2,3 -0,3 3,0 7,5 6,9 10 5 21 12 WNW 1024,5 45 0 0,0
25.03.2019 02:00:00 4,3 -2,3 1,9 3,6 7,8 6,9 13 7 29 16 NW 1024,7 48 0 0,0
25.03.2019 01:00:00 5,3 -2,5 3,0 4,1 8,0 6,9 18 10 29 16 NW 1024,8 48 0 0,0
25.03.2019 00:00:00 6,0 -1,2 3,6 4,8 8,3 6,9 14 7 29 16 NW 1024,9 38 0 0,0
24.03.2019 23:00:00 6,7 -0,1 4,5 5,5 8,6 6,9 19 10 34 18 NNW 1025,0 32 0 0,0
24.03.2019 22:00:00 7,3 0,7 5,4 6,2 8,8 6,8 20 11 32 18 NNW 1025,0 24 0 0,0
24.03.2019 21:00:00 8,2 2,1 5,9 6,8 9,0 6,8 16 9 25 13 NW 1025,0 16 0 0,0
24.03.2019 20:00:00 8,5 2,1 5,0 7,7 9,2 6,8 8 5 18 10 NNW 1024,9 15 0 0,0
24.03.2019 19:00:00 8,9 1,5 6,2 9,2 9,3 6,8 8 4 24 13 N 1024,7 19 0 0,0
24.03.2019 18:00:00 9,7 2,8 9,4 10,4 9,2 6,8 17 9 38 21 N 1024,3 15 0 0,0
24.03.2019 17:00:00 10,7 3,4 10,5 12,0 9,1 6,8 23 12 35 19 N 1024,1 11 0 0,0
24.03.2019 16:00:00 12,5 3,0 13,9 13,4 8,8 6,8 11 6 19 11 NNW 1023,5 9 29 0,0
24.03.2019 15:00:00 11,7 3,6 13,2 12,6 8,5 6,8 15 8 32 17 N 1024,0 9 0 0,0
24.03.2019 14:00:00 12,0 4,4 12,5 15,2 8,0 6,8 14 8 24 13 WNW 1024,0 7 25 0,0
24.03.2019 13:00:00 13,2 6,7 17,7 15,1 7,5 6,8 7 4 16 9 SW 1024,2 6 51 0,0
24.03.2019 12:00:00 10,7 5,1 14,5 13,4 7,2 6,8 8 4 16 9 SE 1025,1 6 50 0,0
24.03.2019 11:00:00 9,0 4,0 14,0 11,2 6,9 6,7 10 5 19 11 ENE 1025,7 5 60 0,0
24.03.2019 10:00:00 7,6 4,1 11,3 8,1 6,9 6,7 14 8 26 14 NE 1026,2 4,8 30 0,0
24.03.2019 09:00:00 5,5 3,5 6,4 6,0 7,0 6,7 17 9 25 13 ENE 1027,0 3,8 0 0,0
24.03.2019 08:00:00 5,2 3,0 5,2 4,9 7,1 6,7 15 8 22 12 ENE 1026,8 4,0 0 0,0
24.03.2019 07:00:00 4,8 2,7 3,1 4,2 7,3 6,7 16 8 24 13 ENE 1026,5 4,4 0 0,0
24.03.2019 06:00:00 5,0 2,6 3,0 4,3 7,5 6,7 19 10 27 15 NE 1026,4 5 0 0,0
24.03.2019 05:00:00 5,2 2,5 3,2 4,6 7,7 6,7 20 11 28 15 NE 1026,5 6 0 0,0
24.03.2019 04:00:00 5,6 2,5 3,6 4,8 7,9 6,7 22 12 29 16 NE 1026,7 6 0 0,0
24.03.2019 03:00:00 5,7 2,5 3,8 5,0 8,2 6,7 22 12 32 18 NE 1026,9 5 0 0,0
24.03.2019 02:00:00 5,8 2,6 4,0 5,3 8,5 6,7 23 12 32 17 NE 1027,5 4,5 0 0,0
24.03.2019 01:00:00 5,7 2,6 3,8 5,6 8,8 6,7 21 11 34 19 NE 1028,2 3,8 0 0,0
24.03.2019 00:00:00 6,0 2,7 4,2 6,0 9,1 6,7 23 12 34 19 NE 1028,5 3,4 0 0,0
23.03.2019 23:00:00 6,1 2,7 4,4 6,5 9,4 6,7 23 12 33 18 ENE 1028,8 3,3 0 0,0
23.03.2019 22:00:00 6,5 2,6 4,7 7,2 9,7 6,7 19 10 31 17 ENE 1029,2 3,8 0 0,0
23.03.2019 21:00:00 6,7 3,2 4,7 8,2 10,0 6,7 14 7 29 16 ENE 1029,1 3,6 0 0,0
23.03.2019 20:00:00 8,0 3,7 5,9 9,6 10,1 6,6 14 7 27 14 ENE 1028,8 4,3 0 0,0
23.03.2019 19:00:00 9,5 4,5 7,8 11,4 10,2 6,6 16 9 28 15 NE 1027,9 5 5 0,0
23.03.2019 18:00:00 12,3 4,9 11,9 13,7 10,0 6,6 19 10 34 18 ENE 1027,0 7 45 0,0
23.03.2019 17:00:00 15,3 4,3 16,1 16,7 9,5 6,6 13 7 21 11 NE 1026,0 8 47 0,0
23.03.2019 16:00:00 16,5 3,0 18,9 17,8 9,0 6,6 5 3 15 8 WSW 1026,0 12 60 0,0
23.03.2019 15:00:00 16,0 2,5 20,4 18,1 8,4 6,6 4 2 15 8 E 1026,7 10 60 0,0
23.03.2019 14:00:00 16,1 3,4 19,7 17,8 7,7 6,6 6 4 21 11 SSW 1026,9 9 60 0,0
23.03.2019 13:00:00 15,2 3,9 18,7 16,9 7,1 6,6 9 5 16 9 SSW 1027,4 8 60 0,0
23.03.2019 12:00:00 14,0 3,3 18,4 15,2 6,6 6,6 9 5 13 7 ESE 1027,7 9 60 0,0
23.03.2019 11:00:00 13,0 2,6 15,9 12,9 6,2 6,6 6 4 12 6 S 1028,3 11 60 0,0
23.03.2019 10:00:00 9,6 2,4 12,4 9,7 6,0 6,6 5 3 8 4 WSW 1028,9 10 60 0,0
23.03.2019 09:00:00 7,6 1,0 9,2 6,6 6,1 6,6 3 2 5 3 SW 1028,9 14 60 0,0
23.03.2019 08:00:00 7,0 0,9 6,7 3,6 6,3 6,6 4 2 5 3 E 1028,7 14 60 0,0
23.03.2019 07:00:00 5,4 0,6 0,4 2,3 6,5 6,6 4 2 5 3 E 1028,5 13 2 0,0
23.03.2019 06:00:00 5,0 0,5 -0,1 2,7 6,8 6,6 5 3 11 6 WSW 1028,5 14 0 0,0
23.03.2019 05:00:00 6,1 0,4 0,9 3,1 7,0 6,6 8 4 10 6 WSW 1028,4 18 0 0,0
23.03.2019 04:00:00 7,2 0,6 1,2 3,4 7,3 6,6 6 4 7 4 W 1028,2 19 0 0,0
23.03.2019 03:00:00 7,2 0,7 2,4 3,8 7,6 6,5 3 2 5 3 SSW 1028,2 22 0 0,0
23.03.2019 02:00:00 7,6 0,6 1,7 4,3 7,9 6,5 3 2 8 5 W 1028,3 21 0 0,0
23.03.2019 01:00:00 8,8 0,5 1,8 4,9 8,2 6,5 4 2 5 3 WSW 1028,1 22 0 0,0
23.03.2019 00:00:00 9,9 0,6 2,9 5,5 8,5 6,5 4 2 5 3 E 1028,1 24 0 0,0
22.03.2019 23:00:00 10,8 0,5 3,4 6,2 8,7 6,5 3 2 4 2 SSW 1028,3 23 0 0,0
22.03.2019 22:00:00 11,1 0,7 4,1 7,1 9,0 6,5 0 0 9 5 N 1028,2 25 0 0,0
22.03.2019 21:00:00 11,9 0,2 5,5 8,2 9,2 6,5 8 4 12 7 W 1028,0 22 0 0,0
22.03.2019 20:00:00 13,8 -0,7 8,3 9,5 9,3 6,5 7 4 11 6 WSW 1027,6 39 0 0,0
22.03.2019 19:00:00 14,8 -0,7 8,9 11,3 9,3 6,5 7 4 13 7 WSW 1027,2 47 45 0,0
22.03.2019 18:00:00 15,7 0,2 13,2 13,3 9,0 6,5 13 7 18 10 W 1026,7 45 46 0,0
22.03.2019 17:00:00 16,9 2,5 17,3 15,3 8,6 6,5 10 5 16 8 SE 1026,6 43 60 0,0
22.03.2019 16:00:00 16,9 -1,5 19,8 15,6 8,2 6,5 6 4 19 10 ESE 1027,0 42 60 0,0
22.03.2019 15:00:00 16,6 -0,4 19,1 16,5 7,6 6,5 14 7 24 13 ESE 1027,5 29 60 0,0
22.03.2019 14:00:00 16,5 1,8 20,9 15,7 7,0 6,5 11 6 21 11 E 1028,0 31 60 0,0
22.03.2019 13:00:00 15,0 0,0 19,1 15,1 6,5 6,5 12 7 22 12 E 1028,8 28 60 0,0
22.03.2019 12:00:00 14,0 -0,7 18,6 13,7 6,0 6,5 13 7 20 11 E 1029,4 27 60 0,0
22.03.2019 11:00:00 12,8 -0,3 16,9 11,2 5,7 6,5 12 6 19 10 E 1029,9 39 60 0,0
22.03.2019 10:00:00 11,5 -0,2 13,8 8,5 5,6 6,5 14 8 22 12 E 1030,3 34 60 0,0
22.03.2019 09:00:00 9,7 -0,6 10,6 6,0 5,6 6,5 14 8 21 11 ENE 1030,8 39 60 0,0
22.03.2019 08:00:00 8,8 -0,4 8,1 3,9 5,7 6,5 15 8 20 11 ENE 1030,8 33 60 0,0
22.03.2019 07:00:00 7,1 -0,8 3,1 2,8 5,9 6,5 12 6 18 10 ENE 1031,0 35 0 0,0
22.03.2019 06:00:00 7,0 -0,9 3,0 3,0 6,0 6,5 13 7 17 9 ENE 1030,9 41 0 0,0
22.03.2019 05:00:00 6,8 -1,1 1,8 3,5 6,2 6,5 11 6 23 12 ENE 1030,9 39 0 0,0
22.03.2019 04:00:00 8,7 -1,5 4,9 3,7 6,4 6,5 18 10 23 12 NE 1030,8 49 0 0,0
22.03.2019 03:00:00 8,4 -1,5 4,5 3,9 6,6 6,5 15 8 23 12 NE 1030,9 47 0 0,0
22.03.2019 02:00:00 9,1 -1,8 4,9 4,1 6,8 6,5 16 9 22 12 NE 1031,2 51 0 0,0
22.03.2019 01:00:00 9,0 -1,9 5,0 4,4 7,0 6,5 16 9 21 11 NE 1031,6 45 0 0,0
22.03.2019 00:00:00 9,0 -1,6 5,1 4,7 7,3 6,5 16 9 21 11 NE 1032,0 41 0 0,0
21.03.2019 23:00:00 9,5 -2,3 6,0 5,2 7,5 6,5 16 8 29 15 ENE 1032,2 63 0 0,0
21.03.2019 22:00:00 10,5 -2,9 7,1 5,7 7,8 6,4 23 12 30 16 ENE 1031,9 70 0 0,0
21.03.2019 21:00:00 10,5 -3,5 6,7 6,4 8,0 6,4 15 8 22 12 ENE 1032,0 61 0 0,0
21.03.2019 20:00:00 10,8 -3,3 7,1 7,4 8,1 6,4 16 9 22 12 ENE 1032,0 61 0 0,0
21.03.2019 19:00:00 11,4 -3,3 6,9 8,9 8,1 6,4 11 6 25 14 ENE 1031,6 70 46 0,0
21.03.2019 18:00:00 12,8 -3,4 12,3 10,8 7,9 6,4 16 9 29 15 ENE 1031,1 56 60 0,0
21.03.2019 17:00:00 13,6 -3,0 14,7 12,6 7,6 6,4 17 9 30 16 E 1031,1 28 60 0,0
21.03.2019 16:00:00 14,3 -1,4 17,2 13,8 7,1 6,4 13 7 30 16 E 1031,2 40 60 0,0
21.03.2019 15:00:00 14,0 -3,1 17,2 14,1 6,6 6,4 17 9 31 17 E 1031,7 38 60 0,0
21.03.2019 14:00:00 13,1 -2,2 17,9 14,0 6,0 6,4 14 7 31 17 E 1032,6 40 60 0,0
21.03.2019 13:00:00 12,1 -2,6 16,6 12,7 5,6 6,4 19 10 29 16 E 1033,3 28 60 0,0
21.03.2019 12:00:00 11,4 -2,3 15,1 11,0 5,2 6,4 21 11 33 18 E 1033,7 31 60 0,0
21.03.2019 11:00:00 10,2 -3,4 12,7 9,3 4,9 6,4 25 14 36 19 E 1034,3 29 60 0,0
21.03.2019 10:00:00 9,2 -2,3 11,4 7,3 4,7 6,4 18 10 26 14 E 1034,5 18 60 0,0
21.03.2019 09:00:00 8,2 -2,5 9,4 4,7 4,8 6,4 14 8 21 12 ENE 1034,8 29 60 0,0
21.03.2019 08:00:00 3,6 -2,5 3,9 2,0 5,0 6,4 9 5 15 8 ENE 1035,6 33 58 0,0
21.03.2019 07:00:00 3,7 -3,7 -0,1 1,3 5,2 6,4 11 6 15 8 NE 1035,3 47 0 0,0
21.03.2019 06:00:00 2,0 -3,2 -1,8 1,4 5,4 6,4 10 5 20 11 ENE 1035,5 39 0 0,0
21.03.2019 05:00:00 4,0 -3,5 0,3 1,6 5,7 6,4 11 6 16 9 NE 1035,1 52 0 0,0
21.03.2019 04:00:00 4,5 -3,5 0,6 2,0 5,9 6,4 11 6 17 9 NE 1034,8 57 0 0,0
21.03.2019 03:00:00 4,9 -3,2 0,5 2,3 6,2 6,4 10 6 13 7 ENE 1034,8 51 0 0,0
21.03.2019 02:00:00 4,0 -2,8 -0,7 2,8 6,4 6,4 9 5 14 8 ENE 1035,4 52 0 0,0
21.03.2019 01:00:00 5,5 -3,0 1,2 3,3 6,7 6,4 10 5 15 8 NE 1035,3 53 0 0,0
21.03.2019 00:00:00 6,3 -3,4 1,9 3,8 7,0 6,4 10 6 16 9 NE 1035,4 52 0 0,0
20.03.2019 23:00:00 7,1 -3,2 2,4 4,4 7,3 6,4 12 7 16 9 NE 1035,4 49 0 0,0
20.03.2019 22:00:00 7,2 -2,7 2,2 5,0 7,6 6,4 10 6 13 7 NE 1035,3 38 0 0,0
20.03.2019 21:00:00 8,0 -2,5 2,2 6,0 7,8 6,4 8 5 12 6 ENE 1034,8 57 0 0,0
20.03.2019 20:00:00 8,6 -3,7 4,1 7,2 7,9 6,4 10 5 12 7 E 1034,4 70 0 0,0
20.03.2019 19:00:00 9,4 -2,9 4,9 8,9 7,9 6,4 8 4 16 9 E 1034,0 70 38 0,0
20.03.2019 18:00:00 10,7 -2,4 10,0 11,1 7,7 6,4 12 6 19 11 E 1033,5 70 60 0,0
20.03.2019 17:00:00 11,3 -1,0 13,0 12,8 7,3 6,4 11 6 19 11 E 1033,1 56 60 0,0
20.03.2019 16:00:00 11,2 -0,7 13,6 13,5 6,9 6,4 10 5 19 10 SE 1033,3 51 60 0,0
20.03.2019 15:00:00 10,9 -1,6 14,0 14,2 6,3 6,4 10 5 19 10 ESE 1033,5 59 60 0,0
20.03.2019 14:00:00 10,3 -1,4 14,1 14,4 5,7 6,4 11 6 21 11 SE 1034,0 44 60 0,0
20.03.2019 13:00:00 9,4 -2,2 14,5 13,5 5,1 6,4 14 7 24 13 SE 1034,8 22 60 0,0
20.03.2019 12:00:00 9,2 -1,8 14,1 12,1 4,6 6,4 10 6 19 10 ESE 1035,0 38 60 0,0
20.03.2019 11:00:00 8,0 -2,8 12,2 9,7 4,2 6,4 4 2 13 7 NW 1035,3 34 60 0,0
20.03.2019 10:00:00 7,4 -3,1 10,0 6,4 4,2 6,4 3 2 7 4 SE 1035,3 42 60 0,0
20.03.2019 09:00:00 5,2 -0,2 6,3 2,4 4,3 6,4 5 3 9 5 ENE 1035,0 57 59 0,0
20.03.2019 08:00:00 3,0 -2,3 2,6 1,0 4,5 6,4 7 4 8 5 NE 1035,0 62 60 0,0

tt = temperature
td = dewpoint
tt 5cm = temperature 5cm
tt -5cm = temperature -5cm
tt -20cm = temperature -20cm
tt -100cm = temperature -100cm
ff = wind speed
fx = gusts
dd = wind direction
ppp = reduced air pressure
vv = visibility
sd = sunshine duration
rr = precipitation

Next stations